Regional Weather Roundup
Issued by NWS

Home | Current Version | Previous Version | Graphics & Text | Print | Product List | Glossary On
Versions: 1 2 3 4 5 6 7 8 9 10 11 12 13 14 15 16 17 18 19 20 21 22 23 24 25 26 27 28 29 30 31 32 33 34 35 36 37 38 39 40 41 42 43 44 45 46 47 48 49 50
000
ASUS43 KMPX 050801
RWRMN
WEATHER ROUNDUP FOR MINNESOTA
NATIONAL WEATHER SERVICE TWIN CITIES/CHANHASSEN MN
300 AM CDT THU MAY 05 2016


NOTE: "FAIR" INDICATES FEW OR NO CLOUDS BELOW 12,000 FEET WITH NO
SIGNIFICANT WEATHER AND/OR OBSTRUCTIONS TO VISIBILITY. N/A MEANS
CURRENT SKY AND/OR WEATHER CONDITIONS ARE NOT AVAILABLE.

MNZ060>063-068>070-050900-
   Twin Cities Metro

CITY           SKY/WX    TMP DP  RH WIND       PRES   REMARKS
TWIN CITIES    CLEAR     49  25  39 CALM      30.02R
ST PAUL        CLEAR     45  34  65 CALM      30.03R
CRYSTAL        CLEAR     42  32  67 CALM      30.00S
BLAINE         PTCLDY    43  34  70 CALM      30.01S
EDEN PRAIRIE   CLEAR     47  30  51 E3        30.01R
SOUTH ST PAUL  CLEAR     43  29  58 CALM      30.02R
LAKE ELMO      FAIR      37  32  81 CALM      30.03R
$$
MNZ001>005-007-008-013>017-022>024-027-028-050900-
   Northwest Minnesota

CITY           SKY/WX    TMP DP  RH WIND       PRES   REMARKS
BEMIDJI        CLEAR     42  28  57 CALM      29.95F
HALLOCK        CLEAR     52  27  37 S12       29.83F
ROSEAU         PTCLDY    52  32  46 CALM      29.87F
WARROAD        PTCLDY    52  32  46 S10       29.89F
THIEF RVR FALL PTCLDY    50  28  43 SE7       29.90F
CROOKSTON      CLEAR     54  30  40 S9        29.90S
FOSSTON        PTCLDY    50  28  43 SE8       29.93F
DETROIT LAKES  CLEAR     46  37  71 S5        29.96S
MOORHEAD       CLEAR     54  30  40 S9        29.93F
PARK RAPIDS    MOCLDY    46  29  51 CALM      29.96F
MAHNOMEN       FAIR      45  32  60 S6        29.93F
$$
MNZ006-009>011-018-025>026-050900-
   North Central Minnesota

CITY           SKY/WX    TMP DP  RH WIND       PRES   REMARKS
BAUDETTE       PTCLDY    48  23  37 S8        29.91F
FLAG ISLAND    MOCLDY    46  37  71 SE10      29.88R
INTL FALLS     PTCLDY    44  35  70 SE6       29.95R
WASKISH        CLOUDY    43  30  61 CALM      29.94S
BIG FORK       MOCLDY    43  30  61 SW8       29.93F
LONGVILLE      CLOUDY    37  36  93 CALM      29.97S
GRAND RAPIDS   MOCLDY    43  23  45 S8        29.98F
CRANE LAKE     RAIN      36  36 100 CALM      29.97F
ORR            CLOUDY    43  28  56 CALM      29.94S
COOK           LGT RAIN  43  28  56 CALM      29.97R
WALKER         PTSUNNY   39  28  64 CALM      29.96F
$$
MNZ012-019>021-037-050900-
   Northeast Minnesota

CITY           SKY/WX    TMP DP  RH WIND       PRES   REMARKS
DULUTH         MOCLDY    37  28  70 S6        29.99F
ELY            MOCLDY    34  28  80 CALM      29.97S
HIBBING        CLOUDY    37  31  78 SE5       29.97F
EVELETH        PTCLDY    36  32  87 CALM      29.98F
DULUTH HARBOR  MOCLDY    39  36  87 E6        30.03S
TWO HARBORS    CLOUDY    34  28  80 CALM      29.98F
SILVER BAY     PTCLDY    28  27  93 CALM      29.99S
GRAND MARAIS     N/A     34  30  85 NW5       30.01F WCI  30
G MARAIS ARPRT PTCLDY    28  25  86 SW3       29.99S
$$
MNZ029>031-032-039>041-046>048-054>057-064-050900-
   West Central Minnesota

CITY           SKY/WX    TMP DP  RH WIND       PRES   REMARKS
FERGUS FALLS   CLEAR     48  36  61 S6        29.94S
WHEATON        CLEAR     52  34  50 S7        29.98S
MORRIS         CLEAR     45  30  57 S5        29.96F
ALEXANDRIA     CLEAR     48  30  49 SE7       29.99S
ELBOW LAKE     FAIR      46  35  63 SE6       29.97S
WADENA         CLEAR     45  28  53 CALM      29.96F
GLENWOOD       CLEAR     46  30  53 SE6       29.99F
APPLETON       CLEAR     43  37  81 CALM      29.98F
BENSON         CLEAR     43  30  61 S5        29.99S
ORTONVILLE     CLEAR     48  34  57 SW3       29.98S
MADISON        CLEAR     45  34  65 SW3       29.99S
WILLMAR        FAIR      45  34  65 CALM      30.01S
$$
MNZ033>034-036-042>043-049>051-058-059-050900-
   Central Minnesota

CITY           SKY/WX    TMP DP  RH WIND       PRES   REMARKS
ST CLOUD       CLEAR     37  32  82 CALM      29.99F
SAUK CENTRE    FAIR      40  33  75 CALM      29.99F
PAYNESVILLE    CLEAR     39  31  72 CALM      30.00F
AITKIN         PTCLDY    37  30  75 CALM      29.96F
PINE RIVER     CLOUDY    37  32  81 CALM      30.00F
BRAINERD       CLEAR     38  32  79 CALM      29.98F
STAPLES        CLEAR     39  30  70 S3        29.97F
LONG PRAIRIE   FAIR      39  34  81 CALM      30.00S
LITTLE FALLS   CLEAR     37  30  75 CALM      29.99S
LITCHFIELD     CLEAR     46  30  53 CALM      30.00F
BUFFALO        CLEAR     39  32  75 CALM      30.01F
MAPLE LAKE     CLEAR     39  35  84 CALM      30.01S
HUTCHINSON     CLEAR     40  33  77 CALM      30.01S
$$
MNZ037-044-045-052-053-050900-
   East Central Minnesota

CITY           SKY/WX    TMP DP  RH WIND       PRES   REMARKS
PRINCETON      CLEAR     37  30  75 CALM      30.00F
MORA           PTCLDY    34  32  93 CALM      30.02S
CAMBRIDGE      CLOUDY    45  32  61 CALM      29.99S
RUSH CITY      CLEAR     35  31  84 CALM      30.01F
MOOSE LAKE     CLOUDY    34  30  86 CALM      29.99S
HINCKLEY       CLOUDY    34  32  93 CALM      30.01F
CLOQUET        PTCLDY    36  28  75 CALM      29.99F
MCGREGOR       MOCLDY    41  30  65 CALM      29.99S
$$
MNZ071>073-080-081-089-090-097-098-050900-
   Southwest Minnesota

CITY           SKY/WX    TMP DP  RH WIND       PRES   REMARKS
MONTEVIDEO     CLEAR     46  34  61 S3        30.01S
GRANITE FALLS  CLEAR     44  33  65 CALM      30.01F
CANBY          CLEAR     44  38  78 SW3       30.00F
MARSHALL       CLEAR     46  32  58 SW5       30.00F
REDWOOD FALLS  CLEAR     49  29  46 CALM      30.00S
OLIVIA         CLEAR     43  30  61 CALM      29.99F
PIPESTONE      CLEAR     46  32  57 CALM      30.02S
WINDOM         CLEAR     43  34  70 CALM      30.01S
WORTHINGTON    CLEAR     45  34  65 W5        30.02F
JACKSON        CLEAR     45  32  61 CALM      30.02S
TRACY          CLEAR     48  34  58 SW7       30.01S
SLAYTON        CLEAR     45  33  62 W5        30.03S
$$
MNZ065>067-074>077-082>085-091>093-050900-
   South Central Minnesota

CITY           SKY/WX    TMP DP  RH WIND       PRES   REMARKS
MANKATO        CLEAR     46  25  42 CALM      30.01R
NEW ULM        CLEAR     46  30  53 NW1       30.00S
ST JAMES       CLEAR     39  32  75 CALM      30.01S
FAIRMONT       CLEAR     45  30  57 W5        30.00S
GLENCOE        CLEAR     43  35  73 CALM      30.00S
OWATONNA       CLEAR     43  27  52 CALM      30.01S
WASECA         CLEAR     39  30  70 CALM      30.02S
ALBERT LEA     CLEAR     43  27  52 CALM      30.01R
$$
MNZ078>079-086>088-094>096-050900-
   Southeast Minnesota

CITY           SKY/WX    TMP DP  RH WIND       PRES   REMARKS
ROCHESTER      CLEAR     46  24  42 NE3       30.01R
RED WING       CLEAR     37  28  70 CALM      30.01R
STANTON        CLEAR     37  30  77 CALM      30.00S
DODGE CENTER   CLEAR     36  21  55 CALM      30.01S
WINONA         PTCLDY    37  32  81 NW5       30.01S
AUSTIN         CLEAR     39  30  70 CALM      30.01R
PRESTON        CLEAR     43  24  48 CALM      30.00S
$$
ABBREVIATIONS USED IN REMARKS
   TC - TEMPERATURES IN CELSIUS
  WCI - WIND CHILL INDEX
   HX - HEAT INDEX
  VSB - VISIBILITY
$$



USA.gov is the U.S. government's official web portal to all federal, state and local government web resources and services.